H1 CPF 2 NER 2022 10 2 9 275 01 glonass128 H2 1106401 9128 37867 2022 10 2 0 0 0 2022 10 5 23 45 0 900 1 1 0 0 0 1 H9 10 0 59854 0.00000 0 12920508.158 -9070398.837 -19977782.541 10 0 59854 900.00000 0 12146120.707 -6627202.854 -21377061.307 10 0 59854 1800.00000 0 11520414.543 -3990961.098 -22359043.384 10 0 59854 2700.00000 0 11074326.326 -1223465.273 -22904722.338 10 0 59854 3600.00000 0 10827595.566 1608199.890 -23003652.818 10 0 59854 4500.00000 0 10787937.506 4434219.983 -22654140.680 10 0 59854 5400.00000 0 10950745.638 7184725.447 -21863257.988 10 0 59854 6300.00000 0 11299334.767 9792465.108 -20646684.017 10 0 59854 7200.00000 0 11805712.301 12195367.073 -19028376.962 10 0 59854 8100.00000 0 12431843.041 14338880.846 -17040084.410 10 0 59854 9000.00000 0 13131351.907 16178004.286 -14720703.695 10 0 59854 9900.00000 0 13851590.847 17678912.757 -12115506.125 10 0 59854 10800.00000 0 14535981.192 18820125.025 -9275241.448 10 0 59854 11700.00000 0 15126531.666 19593160.146 -6255140.991 10 0 59854 12600.00000 0 15566425.378 20002661.002 -3113839.673 10 0 59854 13500.00000 0 15802566.908 20065982.449 87761.803 10 0 59854 14400.00000 0 15787982.765 19812264.206 3287672.464 10 0 59854 15300.00000 0 15483975.172 19281029.681 6424001.786 10 0 59854 16200.00000 0 14861939.792 18520371.243 9436143.294 10 0 59854 17100.00000 0 13904772.233 17584798.983 12265929.288 10 0 59854 18000.00000 0 12607805.352 16532843.350 14858735.699 10 0 59854 18900.00000 0 10979238.712 15424511.624 17164517.422 10 0 59854 19800.00000 0 9040042.231 14318703.590 19138755.984 10 0 59854 20700.00000 0 6823337.463 13270693.110 20743302.964 10 0 59854 21600.00000 0 4373280.938 12329779.188 21947104.630 10 0 59854 22500.00000 0 1743493.927 11537203.111 22726795.165 10 0 59854 23400.00000 0 -1004898.594 10924417.385 23067147.949 10 0 59854 24300.00000 0 -3805541.432 10511777.965 22961376.586 10 0 59854 25200.00000 0 -6589343.897 10307714.264 22411279.627 10 0 59854 26100.00000 0 -9287095.233 10308412.186 21427225.269 10 0 59854 27000.00000 0 -11832094.882 10498024.628 20027974.892 10 0 59854 27900.00000 0 -14162690.464 10849402.401 18240346.790 10 0 59854 28800.00000 0 -16224619.143 11325317.009 16098724.340 10 0 59854 29700.00000 0 -17973055.423 11880126.097 13644415.664 10 0 59854 30600.00000 0 -19374279.614 12461813.465 10924874.803 10 0 59854 31500.00000 0 -20406896.145 13014319.191 7992797.545 10 0 59854 32400.00000 0 -21062549.215 13480062.288 4905107.880 10 0 59854 33300.00000 0 -21346104.009 13802549.242 1721853.918 10 0 59854 34200.00000 0 -21275284.103 13928957.057 -1494965.340 10 0 59854 35100.00000 0 -20879779.033 13812579.675 -4682618.928 10 0 59854 36000.00000 0 -20199858.823 13415031.617 -7778883.548 10 0 59854 36900.00000 0 -19284553.861 12708112.611 -10723277.819 10 0 59854 37800.00000 0 -18189477.674 11675251.190 -13458264.975 10 0 59854 38700.00000 0 -16974385.885 10312463.241 -15930398.274 10 0 59854 39600.00000 0 -15700576.381 8628782.522 -18091384.519 10 0 59854 40500.00000 0 -14428242.588 6646143.077 -19899043.086 10 0 59854 41400.00000 0 -13213893.741 4398717.246 -21318140.340 10 0 59854 42300.00000 0 -12107952.846 1931736.743 -22321082.172 10 0 59854 43200.00000 0 -11152634.972 -700153.591 -22888450.905 10 0 59854 44100.00000 0 -10380195.888 -3434939.703 -23009376.312 10 0 59854 45000.00000 0 -9811624.723 -6205593.343 -22681734.239 10 0 59854 45900.00000 0 -9455834.715 -8942638.798 -21912170.138 10 0 59854 46800.00000 0 -9309384.489 -11576823.381 -20715948.459 10 0 59854 47700.00000 0 -9356739.413 -14041779.732 -19116632.441 10 0 59854 48600.00000 0 -9571059.473 -16276569.049 -17145602.230 10 0 59854 49500.00000 0 -9915477.859 -18227999.942 -14841422.275 10 0 59854 50400.00000 0 -10344813.854 -19852627.491 -12249071.858 10 0 59854 51300.00000 0 -10807645.673 -21118351.144 -9419055.032 10 0 59854 52200.00000 0 -11248654.139 -22005547.202 -6406408.290 10 0 59854 53100.00000 0 -11611137.296 -22507691.358 -3269626.072 10 0 59854 54000.00000 0 -11839589.468 -22631448.201 -69525.400 10 0 59854 54900.00000 0 -11882236.152 -22396226.749 3131928.330 10 0 59854 55800.00000 0 -11693418.606 -21833223.096 6272811.837 10 0 59854 56700.00000 0 -11235728.711 -20983992.191 9292428.430 10 0 59854 57600.00000 0 -10481805.431 -19898609.851 12132464.651 10 0 59854 58500.00000 0 -9415718.515 -18633502.457 14738098.034 10 0 59854 59400.00000 0 -8033882.161 -17249034.940 17059036.274 10 0 59854 60300.00000 0 -6345460.676 -15806957.005 19050469.567 10 0 59854 61200.00000 0 -4372248.843 -14367812.911 20673919.483 10 0 59854 62100.00000 0 -2148030.948 -12988421.214 21897969.710 10 0 59854 63000.00000 0 282556.670 -11719527.789 22698865.978 10 0 59854 63900.00000 0 2865614.549 -10603728.400 23060974.497 10 0 59854 64800.00000 0 5539957.465 -9673746.096 22977090.518 10 0 59854 65700.00000 0 8239401.285 -8951134.535 22448590.824 10 0 59854 66600.00000 0 10895267.492 -8445461.251 21485426.347 10 0 59854 67500.00000 0 13439004.380 -8154005.515 20105953.600 10 0 59854 68400.00000 0 15804818.415 -8061984.585 18336606.187 10 0 59854 69300.00000 0 17932207.980 -8143300.531 16211410.478 10 0 59854 70200.00000 0 19768294.843 -8361778.106 13771352.345 10 0 59854 71100.00000 0 21269856.107 -8672843.505 11063604.857 10 0 59854 72000.00000 0 22404970.788 -9025574.823 8140629.897 10 0 59854 72900.00000 0 23154210.677 -9365038.726 5059169.571 10 0 59854 73800.00000 0 23511323.638 -9634814.793 1879146.066 10 0 59854 74700.00000 0 23483378.609 -9779600.195 -1337508.709 10 0 59854 75600.00000 0 23090364.451 -9747782.891 -4528070.394 10 0 59854 76500.00000 0 22364258.182 -9493872.159 -7630261.414 10 0 59854 77400.00000 0 21347601.189 -8980680.696 -10583486.125 10 0 59854 78300.00000 0 20091643.584 -8181162.808 -13330035.705 10 0 59854 79200.00000 0 18654135.791 -7079827.793 -15816236.994 10 0 59854 80100.00000 0 17096862.018 -5673665.987 -17993520.626 10 0 59854 81000.00000 0 15483021.535 -3972546.078 -19819385.708 10 0 59854 81900.00000 0 13874570.151 -1999065.247 -21258240.783 10 0 59854 82800.00000 0 12329635.862 212142.375 -22282103.676 10 0 59854 83700.00000 0 10900118.965 2615610.115 -22871146.263 10 0 59854 84600.00000 0 9629578.471 5156705.158 -23014073.757 10 0 59854 85500.00000 0 8551493.872 7773686.231 -22708331.821 10 0 59855 0.00000 0 7687974.643 10400065.310 -21960138.723 10 0 59855 900.00000 0 7048969.791 12967175.099 -20784342.814 10 0 59855 1800.00000 0 6632009.617 15406830.725 -19204110.857 10 0 59855 2700.00000 0 6422486.313 17653978.994 -17250453.562 10 0 59855 3600.00000 0 6394459.851 19649221.324 -14961600.111 10 0 59855 4500.00000 0 6511951.822 21341107.282 -12382235.037 10 0 59855 5400.00000 0 6730670.066 22688104.192 -9562613.674 10 0 59855 6300.00000 0 7000089.128 23660162.562 -6557574.409 10 0 59855 7200.00000 0 7265797.124 24239814.242 -3425467.764 10 0 59855 8100.00000 0 7472008.998 24422760.049 -227023.553 10 0 59855 9000.00000 0 7564139.777 24217924.951 2975821.900 10 0 59855 9900.00000 0 7491329.615 23646980.868 6121115.917 10 0 59855 10800.00000 0 7208814.907 22743359.163 9148074.719 10 0 59855 11700.00000 0 6680046.681 21550795.534 11998241.904 10 0 59855 12600.00000 0 5878468.281 20121468.960 14616599.052 10 0 59855 13500.00000 0 4788878.633 18513812.488 16952608.707 10 0 59855 14400.00000 0 3408324.491 16790086.600 18961171.389 10 0 59855 15300.00000 0 1746484.335 15013815.142 20603479.911 10 0 59855 16200.00000 0 -174472.783 13247189.024 21847756.248 10 0 59855 17100.00000 0 -2320549.038 11548543.833 22669858.155 10 0 59855 18000.00000 0 -4647074.727 9970014.548 23053744.764 10 0 59855 18900.00000 0 -7100314.899 8555463.224 22991792.660 10 0 59855 19800.00000 0 -9619462.031 7338764.658 22484956.129 10 0 59855 20700.00000 0 -12138935.108 6342520.789 21542767.662 10 0 59855 21600.00000 0 -14590892.734 5577257.362 20183177.292 10 0 59855 22500.00000 0 -16907858.514 5041136.973 18432231.886 10 0 59855 23400.00000 0 -19025351.427 4720201.674 16323598.349 10 0 59855 24300.00000 0 -20884412.893 4589136.437 13897937.509 10 0 59855 25200.00000 0 -22433925.422 4612523.062 11202138.397 10 0 59855 26100.00000 0 -23632625.294 4746533.303 8288425.764 10 0 59855 27000.00000 0 -24450723.699 4940990.967 5213356.528 10 0 59855 27900.00000 0 -24871066.420 5141716.375 2036723.679 10 0 59855 28800.00000 0 -24889781.109 5293053.849 -1179611.157 10 0 59855 29700.00000 0 -24516382.771 5340474.062 -4372933.284 10 0 59855 30600.00000 0 -23773331.109 5233139.185 -7480913.730 10 0 59855 31500.00000 0 -22695057.119 4926319.558 -10442845.271 10 0 59855 32400.00000 0 -21326499.376 4383556.602 -13200849.467 10 0 59855 33300.00000 0 -19721211.945 3578477.225 -15701028.898 10 0 59855 34200.00000 0 -17939124.620 2496180.082 -17894539.830 10 0 59855 35100.00000 0 -16044051.389 1134132.489 -19738562.487 10 0 59855 36000.00000 0 -14101053.822 -497461.822 -21197148.509 10 0 59855 36900.00000 0 -12173772.241 -2375840.850 -22241928.059 10 0 59855 37800.00000 0 -10321838.481 -4466401.442 -22852662.457 10 0 59855 38700.00000 0 -8598479.997 -6723925.206 -23017631.753 10 0 59855 39600.00000 0 -7048416.412 -9094261.081 -22733850.361 10 0 59855 40500.00000 0 -5706136.293 -11516393.193 -22007107.711 10 0 59855 41400.00000 0 -4594625.240 -13924806.393 -20851834.507 10 0 59855 42300.00000 0 -3724596.652 -16252049.535 -19290798.821 10 0 59855 43200.00000 0 -3094254.797 -18431388.737 -17354639.606 10 0 59855 44100.00000 0 -2689597.054 -20399439.552 -15081248.298 10 0 59855 45000.00000 0 -2485239.432 -22098668.330 -12515012.131 10 0 59855 45900.00000 0 -2445727.458 -23479659.214 -9705935.160 10 0 59855 46800.00000 0 -2527274.425 -24503053.432 -6708655.149 10 0 59855 47700.00000 0 -2679851.477 -25141081.733 -3581376.285 10 0 59855 48600.00000 0 -2849539.758 -25378628.098 -384738.864 10 0 59855 49500.00000 0 -2981044.504 -25213782.598 2819352.043 10 0 59855 50400.00000 0 -3020264.842 -24657862.574 5968916.439 10 0 59855 51300.00000 0 -2916811.332 -23734903.231 9003085.430 10 0 59855 52200.00000 0 -2626366.017 -22480640.515 11863261.536 10 0 59855 53100.00000 0 -2112786.724 -20941029.693 14494232.154 10 0 59855 54000.00000 0 -1349868.252 -19170361.720 16845216.306 10 0 59855 54900.00000 0 -322687.326 -17229055.502 18870826.300 10 0 59855 55800.00000 0 971524.609 -15181216.919 20531927.453 10 0 59855 56700.00000 0 2523017.525 -13092064.615 21796381.061 10 0 59855 57600.00000 0 4309684.053 -11025327.579 22639657.681 10 0 59855 58500.00000 0 6297740.744 -9040720.671 23045309.887 10 0 59855 59400.00000 0 8442903.370 -7191600.947 23005295.858 10 0 59855 60300.00000 0 10692010.216 -5522900.480 22520147.397 10 0 59855 61200.00000 0 12985028.972 -4069420.527 21598978.338 10 0 59855 62100.00000 0 15257366.893 -2854557.363 20259331.790 10 0 59855 63000.00000 0 17442391.071 -1889512.992 18526867.202 10 0 59855 63900.00000 0 19474056.113 -1173024.358 16434891.100 10 0 59855 64800.00000 0 21289531.342 -691623.496 14023738.061 10 0 59855 65700.00000 0 22831718.521 -420419.111 11340011.571 10 0 59855 66600.00000 0 24051554.545 -324368.219 8435697.387 10 0 59855 67500.00000 0 24910001.524 -359985.498 5367165.010 10 0 59855 68400.00000 0 25379638.959 -477418.943 2194075.646 10 0 59855 69300.00000 0 25445788.775 -622804.214 -1021782.261 10 0 59855 70200.00000 0 25107123.428 -740797.351 -4217706.809 10 0 59855 71100.00000 0 24375729.167 -777177.037 -7331320.883 10 0 59855 72000.00000 0 23276619.895 -681404.020 -10301808.926 10 0 59855 72900.00000 0 21846720.902 -409026.479 -13071126.014 10 0 59855 73800.00000 0 20133364.833 76173.547 -15585153.387 10 0 59855 74700.00000 0 18192363.593 800386.488 -17794775.587 10 0 59855 75600.00000 0 16085738.392 1778412.912 -19656856.276 10 0 59855 76500.00000 0 13879204.874 3012792.321 -21135092.183 10 0 59855 77400.00000 0 11639520.813 4493461.328 -22200727.453 10 0 59855 78300.00000 0 9431809.358 6197956.510 -22833114.128 10 0 59855 79200.00000 0 7316971.425 8092153.548 -23020107.972 10 0 59855 80100.00000 0 5349296.453 10131511.112 -22758292.611 10 0 59855 81000.00000 0 3574371.588 12262766.439 -22053028.721 10 0 59855 81900.00000 0 2027375.927 14426010.421 -20918328.751 10 0 59855 82800.00000 0 731829.653 16557054.091 -19376561.166 10 0 59855 83700.00000 0 -301152.045 18589986.481 -17457991.709 10 0 59855 84600.00000 0 -1073071.980 20459816.238 -15200172.172 10 0 59855 85500.00000 0 -1597725.280 22105086.211 -12647190.147 10 0 59856 0.00000 0 -1900352.101 23470351.972 -9848795.951 10 0 59856 900.00000 0 -2016307.732 24508422.148 -6859423.178 10 0 59856 1800.00000 0 -1989308.478 25182266.440 -3737126.629 10 0 59856 2700.00000 0 -1869330.009 25466515.747 -542453.624 10 0 59856 3600.00000 0 -1710247.753 25348491.743 2662725.543 10 0 59856 4500.00000 0 -1567319.775 24828725.656 5816407.050 10 0 59856 5400.00000 0 -1494618.236 23920946.344 8857640.245 10 0 59856 6300.00000 0 -1542517.130 22651539.678 11727689.720 10 0 59856 7200.00000 0 -1755341.078 21058502.841 14371151.548 10 0 59856 8100.00000 0 -2169272.968 19189937.569 16737003.778 10 0 59856 9000.00000 0 -2810607.240 17102144.783 18779572.694 10 0 59856 9900.00000 0 -3694421.328 14857399.011 20459397.945 10 0 59856 10800.00000 0 -4823720.630 12521493.568 21743981.587 10 0 59856 11700.00000 0 -6189093.236 10161156.443 22608408.041 10 0 59856 12600.00000 0 -7768889.921 7841442.045 23035823.967 10 0 59856 13500.00000 0 -9529923.821 5623204.717 23017769.353 10 0 59856 14400.00000 0 -11428663.128 3560756.865 22554353.274 10 0 59856 15300.00000 0 -13412870.017 1699807.341 21654270.180 10 0 59856 16200.00000 0 -15423620.637 75764.642 20334655.021 10 0 59856 17100.00000 0 -17397625.068 -1287524.882 18620778.106 10 0 59856 18000.00000 0 -19269753.011 -2378550.996 16545583.364 10 0 59856 18900.00000 0 -20975661.804 -3198392.619 14149076.485 10 0 59856 19800.00000 0 -22454418.042 -3760438.223 11477572.394 10 0 59856 20700.00000 0 -23651003.178 -4089583.905 8582814.569 10 0 59856 21600.00000 0 -24518597.307 -4220941.643 5520981.626 10 0 59856 22500.00000 0 -25020543.622 -4198111.217 2351599.434 10 0 59856 23400.00000 0 -25131908.655 -4071088.342 -863620.302 10 0 59856 24300.00000 0 -24840570.043 -3893897.794 -4061991.948 10 0 59856 25200.00000 0 -24147783.321 -3722052.812 -7181093.596 10 0 59856 26100.00000 0 -23068201.467 -3609950.180 -10160004.523 10 0 59856 27000.00000 0 -21629344.552 -3608313.790 -12940516.251 10 0 59856 27900.00000 0 -19870540.674 -3761797.804 -15468291.306 10 0 59856 28800.00000 0 -17841382.503 -4106853.773 -17693944.759 10 0 59856 29700.00000 0 -15599764.819 -4669954.758 -19574025.504 10 0 59856 30600.00000 0 -13209586.577 -5466253.875 -21071876.607 10 0 59856 31500.00000 0 -10738215.506 -6498735.631 -22158356.851 10 0 59856 32400.00000 0 -8253823.156 -7757896.940 -22812409.027 10 0 59856 33300.00000 0 -5822703.431 -9221971.602 -23021464.046 10 0 59856 34200.00000 0 -3506687.899 -10857688.450 -22781673.612 10 0 59856 35100.00000 0 -1360766.326 -12621530.500 -22097968.047 10 0 59856 36000.00000 0 568988.561 -14461441.066 -20983939.540 10 0 59856 36900.00000 0 2247106.517 -16318903.889 -19461554.653 10 0 59856 37800.00000 0 3649947.056 -18131308.825 -17560703.398 10 0 59856 38700.00000 0 4766419.983 -19834502.938 -15318595.248 10 0 59856 39600.00000 0 5598172.194 -21365419.427 -12779015.406 10 0 59856 40500.00000 0 6159236.409 -22664674.131 -9991457.148 10 0 59856 41400.00000 0 6475160.098 -23679021.262 -7010148.152 10 0 59856 42300.00000 0 6581654.339 -24363566.324 -3892990.647 10 0 59856 43200.00000 0 6522822.179 -24683644.934 -700436.390 10 0 59856 44100.00000 0 6349043.136 -24616290.473 2505681.579 10 0 59856 45000.00000 0 6114604.184 -24151230.903 5663337.924 10 0 59856 45900.00000 0 5875177.584 -23291374.789 8711502.388 10 0 59856 46800.00000 0 5685251.583 -22052767.649 11591303.604 10 0 59856 47700.00000 0 5595621.398 -20464021.526 14247148.092 10 0 59856 48600.00000 0 5651044.914 -18565242.046 16627774.462 10 0 59856 49500.00000 0 5888160.400 -16406497.459 18687224.281 10 0 59856 50400.00000 0 6333752.515 -14045892.558 20385712.563 10 0 59856 51300.00000 0 7003438.560 -11547326.029 21690382.892 10 0 59856 52200.00000 0 7900829.838 -8978022.307 22575934.029 10 0 59856 53100.00000 0 9017203.697 -6405938.087 23025106.936 10 0 59856 54000.00000 0 10331701.240 -3897148.529 23029023.368 10 0 59856 54900.00000 0 11812044.465 -1513319.145 22587369.410 10 0 59856 55800.00000 0 13415745.400 690633.685 21708419.661 10 0 59856 56700.00000 0 15091759.716 2668598.055 20408900.272 10 0 59856 57600.00000 0 16782518.772 4384953.192 18713691.607 10 0 59856 58500.00000 0 18426257.949 5815817.369 16655374.017 10 0 59856 59400.00000 0 19959546.209 6949804.645 14273623.137 10 0 59856 60300.00000 0 21319912.514 7788257.892 11614463.945 10 0 59856 61200.00000 0 22448459.587 8344947.027 8729395.992 10 0 59856 62100.00000 0 23292354.965 8645243.868 5674405.091 10 0 59856 63000.00000 0 23807093.325 8724807.199 2508879.564 10 0 59856 63900.00000 0 23958432.790 8627832.774 -705548.086 10 0 59856 64800.00000 0 23723921.058 8404942.134 -3906211.177 10 0 59856 65700.00000 0 23093944.147 8110800.155 -7030645.810 10 0 59856 66600.00000 0 22072250.794 7801563.599 -10017828.936 10 0 59856 67500.00000 0 20675928.001 7532270.738 -12809391.302 10 0 59856 68400.00000 0 18934826.994 7354285.191 -15350779.356 10 0 59856 69300.00000 0 16890462.780 7312904.923 -17592341.137 10 0 59856 70200.00000 0 14594433.435 7445240.331 -19490312.986 10 0 59856 71100.00000 0 12106426.004 7778453.569 -21007686.291 10 0 59856 72000.00000 0 9491893.886 8328435.388 -22114936.219 10 0 59856 72900.00000 0 6819504.404 9098976.545 -22790597.816 10 0 59856 73800.00000 0 4158464.806 10081469.248 -23021678.363 10 0 59856 74700.00000 0 1575839.785 11255150.960 -22803898.542 10 0 59856 75600.00000 0 -866026.776 12587879.497 -22141758.841 10 0 59856 76500.00000 0 -3111878.180 14037405.617 -21048431.274 10 0 59856 77400.00000 0 -5115601.346 15553088.045 -19545480.113 10 0 59856 78300.00000 0 -6841889.057 17077977.415 -17662418.773 10 0 59856 79200.00000 0 -8267440.972 18551180.253 -15436113.059 10 0 59856 80100.00000 0 -9381656.067 19910402.687 -12910043.997 10 0 59856 81000.00000 0 -10186790.938 21094566.531 -10133445.896 10 0 59856 81900.00000 0 -10697580.849 22046387.887 -7160337.489 10 0 59856 82800.00000 0 -10940342.774 22714810.462 -4048465.874 10 0 59856 83700.00000 0 -10951601.201 23057192.463 -858184.233 10 0 59856 84600.00000 0 -10776296.968 23041156.619 2348714.801 10 0 59856 85500.00000 0 -10465656.209 22646027.283 5510187.614 10 0 59857 0.00000 0 -10074810.189 21863796.055 8565127.323 10 0 59857 900.00000 0 -9660266.202 20699576.386 11454530.346 10 0 59857 1800.00000 0 -9277335.998 19171530.368 14122616.451 10 0 59857 2700.00000 0 -8977628.232 17310269.872 16517887.730 10 0 59857 3600.00000 0 -8806709.510 15157757.888 18594103.721 10 0 59857 4500.00000 0 -8802030.654 12765754.686 20311157.242 10 0 59857 5400.00000 0 -8991204.046 10193872.062 21635835.522 10 0 59857 6300.00000 0 -9390703.460 7507314.397 22542453.438 10 0 59857 7200.00000 0 -10005040.678 4774397.909 23013347.627 10 0 59857 8100.00000 0 -10826453.915 2063948.281 23039222.556 10 0 59857 9000.00000 0 -11835122.412 -557318.144 22619341.783 10 0 59857 9900.00000 0 -12999900.212 -3027323.313 21761560.005 10 0 59857 10800.00000 0 -14279540.966 -5290963.673 20482193.992 10 0 59857 11700.00000 0 -15624365.345 -7302157.918 18805733.021 10 0 59857 12600.00000 0 -16978304.036 -9025521.698 16764392.209 10 0 59857 13500.00000 0 -18281233.215 -10437599.474 14397514.963 10 0 59857 14400.00000 0 -19471506.432 -11527601.411 11750833.704 10 0 59857 15300.00000 0 -20488577.651 -12297613.295 8875601.075 10 0 59857 16200.00000 0 -21275605.273 -12762269.333 5827606.809 10 0 59857 17100.00000 0 -21781926.670 -12947900.316 2666098.212 10 0 59857 18000.00000 0 -21965297.194 -12891191.946 -547375.018 10 0 59857 18900.00000 0 -21793796.795 -12637409.499 -3750168.786 10 0 59857 19800.00000 0 -21247320.898 -12238264.010 -6879780.832 10 0 59857 20700.00000 0 -20318589.635 -11749511.163 -9875089.322 10 0 59857 21600.00000 0 -19013630.065 -11228386.140 -12677567.614 10 0 59857 22500.00000 0 -17351708.697 -10730985.220 -15232449.231 10 0 59857 23400.00000 0 -15364715.574 -10309707.473 -17489817.999 10 0 59857 24300.00000 0 -13096024.987 -10010867.440 -19405600.102 10 0 59857 25200.00000 0 -10598880.605 -9872582.139 -20942437.114 10 0 59857 26100.00000 0 -7934373.476 -9923023.678 -22070421.842 10 0 59857 27000.00000 0 -5169098.669 -10179112.572 -22767682.199 10 0 59857 27900.00000 0 -2372589.896 -10645707.534 -23020801.799 10 0 59857 28800.00000 0 385359.342 -11315325.726 -22825069.668 10 0 59857 29700.00000 0 3037375.341 -12168404.481 -22184555.297 10 0 59857 30600.00000 0 5521072.349 -13174092.128 -21112008.926 10 0 59857 31500.00000 0 7781402.377 -14291532.973 -19628590.589 10 0 59857 32400.00000 0 9772689.786 -15471590.549 -17763434.869 10 0 59857 33300.00000 0 11460267.605 -16658934.956 -15553061.456 10 0 59857 34200.00000 0 12821649.710 -17794404.996 -13040644.553 10 0 59857 35100.00000 0 13847192.983 -18817544.759 -10275156.696 10 0 59857 36000.00000 0 14540225.084 -19669207.413 -7310404.754 10 0 59857 36900.00000 0 14916635.901 -20294116.749 -4203977.686 10 0 59857 37800.00000 0 15003953.027 -20643279.296 -1016127.056 10 0 59857 38700.00000 0 14839942.936 -20676146.635 2191397.904 10 0 59857 39600.00000 0 14470798.743 -20362438.331 5356538.203 10 0 59857 40500.00000 0 13948992.228 -19683550.388 8418113.582 10 0 59857 41400.00000 0 13330881.057 -18633491.482 11316989.626 10 0 59857 42300.00000 0 12674171.679 -17219308.849 13997202.100 10 0 59857 43200.00000 0 12035343.759 -15460986.616 16407018.446 10 0 59857 44100.00000 0 11467143.055 -13390820.797 18499917.694 10 0 59857 45000.00000 0 11016246.488 -11052296.430 20235471.621 10 0 59857 45900.00000 0 10721195.769 -8498512.201 21580111.915 10 0 59857 46800.00000 0 10610684.975 -5790216.043 22507770.024 10 0 59857 47700.00000 0 10702272.942 -2993530.846 23000378.400 10 0 59857 48600.00000 0 11001574.278 -177461.808 23048224.054 10 0 59857 49500.00000 0 11501963.399 2588714.150 22650147.578 10 0 59857 50400.00000 0 12184805.307 5238071.293 21813583.101 10 0 59857 51300.00000 0 13020205.401 7708563.904 20554437.138 10 0 59857 52200.00000 0 13968249.318 9945357.806 18896806.823 10 0 59857 53100.00000 0 14980683.434 11902868.636 16872540.810 10 0 59857 54000.00000 0 16002968.004 13546422.320 14520648.885 10 0 59857 54900.00000 0 16976618.807 14853468.084 11886569.332 10 0 59857 55800.00000 0 17841740.227 15814292.188 9021306.115 10 0 59857 56700.00000 0 18539643.676 16432201.201 5980450.902 10 0 59857 57600.00000 0 19015440.597 16723165.601 2823107.789 10 0 59857 58500.00000 0 19220499.288 16714937.373 -389258.697 10 0 59857 59400.00000 0 19114659.656 16445677.905 -3594029.560 10 0 59857 60300.00000 0 18668109.575 15962153.820 -6728666.747 10 0 59857 61200.00000 0 17862840.553 15317577.363 -9731952.205 10 0 59857 62100.00000 0 16693618.147 14569183.875 -12545204.382 10 0 59857 63000.00000 0 15168423.423 13775650.568 -15113446.225 10 0 59857 63900.00000 0 13308344.700 12994468.063 -17386499.518 10 0 59857 64800.00000 0 11146922.650 12279378.280 -19319982.268 10 0 59857 65700.00000 0 8728975.597 11677989.335 -20876188.033 10 0 59857 66600.00000 0 6108954.478 11229670.244 -22024828.889 10 0 59857 67500.00000 0 3348897.035 10963815.735 -22743627.059 10 0 59857 68400.00000 0 516067.951 10898555.119 -23018743.727 10 0 59857 69300.00000 0 -2319615.207 11039959.628 -22845037.241 10 0 59857 70200.00000 0 -5088261.694 11381780.820 -22226146.757 10 0 59857 71100.00000 0 -7722680.509 11905729.697 -21174401.023 10 0 59857 72000.00000 0 -10160934.844 12582282.900 -19710555.689 10 0 59857 72900.00000 0 -12348672.171 13371979.960 -17863365.919 10 0 59857 73800.00000 0 -14241134.141 14227154.874 -15669004.261 10 0 59857 74700.00000 0 -15804764.326 15094027.157 -13170336.677 10 0 59857 75600.00000 0 -17018349.389 15915062.796 -10416072.187 10 0 59857 76500.00000 0 -17873648.987 16631504.605 -7459803.739 10 0 59857 77400.00000 0 -18375491.279 17185964.944 -4358959.884 10 0 59857 78300.00000 0 -18541333.297 17524971.703 -1173688.090 10 0 59857 79200.00000 0 -18400307.557 17601360.971 2034308.467 10 0 59857 80100.00000 0 -17991797.361 17376416.723 5202958.205 10 0 59857 81000.00000 0 -17363602.425 16821668.792 8271010.146 10 0 59857 81900.00000 0 -16569772.915 15920274.848 11179202.591 10 0 59857 82800.00000 0 -15668203.078 14667929.540 13871390.077 10 0 59857 83700.00000 0 -14718085.021 13073263.446 16295608.421 10 0 59857 84600.00000 0 -13777328.366 11157715.267 18405059.089 10 0 59857 85500.00000 0 -12900052.488 8954882.228 20158995.596 99